STARLINK-1371, 45542

Orbit data source: Space-Track

STARLINK-1371, 45542 is a payload satellite owned by SpaceX/Seattle (US) in LEO that was launched on Wed, 22 Apr 2020 UTC via an FALCON 9 launch vehicle from the Air Force Eastern Test Range (AFETR). Payload-class satellites include a variety of spacecraft equipped with specific instruments for various scientific and technological missions. These include communications satellites like Starlink; space stations such as the ISS; scientific satellites like the Hubble; Earth observation satellites from companies like Planet Labs, Umbra, and HawkEye 360; GPS; miniature CubeSats for education and research; and military/defense satellites.

Loading next visibility...
Identifier
45542, 2020-025M
Orbit
LEO
Country
Flag of USUS
Related business
Manufacturer
SpaceX/Seattle
Mission
Operational Commercial Communications
Bus & Motor
STARLINK, Unknown motor
Mass
260 kg wet, ~248 kg dry
Launch date (UTC)
2020-04-22 (5 years ago)
Launch vehicle
FALCON 9
Launch site
Air Force Eastern Test Range (AFETR)
Object type
Payload
Rocket body
Debris
Shape & HBR
Box + 1 Pan, 4.4 m
Radar Cross Section
13.562 m², Large (>1 m²)

Expand to show TLE details & history
Last TLE update: 14 hours ago

TLE from 14 hours ago
0 STARLINK-1371
1 45542U 20025M   25259.01721784  .00003561  00000-0  25782-3 0  9994
2 45542  53.0557 170.7564 0001786  89.9263 270.1931 15.06401165298760
Epoch: 2025-09-16T00:24Z
TLE epoch observation values (Epoch: 2025-09-16T00:24:47.621Z)
Latitude
0.00001°
Longitude
169.34443°
Altitude
548.083 km
Speed
7.589 km/s
True Right ascension
11h 23m 01s
True Declination
0° 00' 00"
Sunlit
Object was in daylight at epoch
Visualization orbit readout
Latitude
Unknown
Longitude
Unknown
Altitude
Unknown
Speed
Unknown
Apparent Right ascension
Unknown
Apparent Declination
Unknown
Sunlit
N/A
Visualization observer readout
Local Sidereal Time
07:11:12
Azimuth
Unknown
Elevation
Unknown
Doppler factor
Unknown
Orbital elements
Apogee altitude
548.715 km
Perigee altitude
546.242 km
Semi-major axis
6,925.616 km
Eccentricity
0.00018
Inclination
53.0557°
RAAN
170.7564°
Arg. of periapsis
89.9263°
True anomaly
270.17263°
Mean anomaly
270.1931°
Eccentric anomaly
270.18287°
Mean motion
3.76579 °/min
Orbital period
95.6 mins
BSTAR
0.00025782
Loading maneuver chart data...
Computing Atmospheric mass density...

Documentation

Showing up to 5 results
|